Location: Bannatyne
(13.0833°N, 59.5333°W)
Time: 03:26:31
(UTC+00:00)

Vanguard 3 - Pass Details

Date: 01 February 2020
Orbit: 508 x 3263 km, 33.3° (Epoch: 18 February)

Event Time Altitude Azimuth Distance (km) Brightness Sun altitude
Rises 01:56:38 0° 303° (WNW) 7,055 12.3 -57.2°
Reaches altitude 10° 02:01:48 10° 304° (NW) 5,809 11.7 -58.4°
Enters shadow 02:09:57 32° 308° (NW) 3,747 10.4 -60.4°
Maximum altitude 02:18:37 80° 31° (NNE) 2,073 - -62.4°
Drops below altitude 10° 02:28:01 10° 118° (ESE) 3,465 - -64.7°
Sets 02:30:19 0° 119° (ESE) 4,160 - -65.2°
